Location: Newark
(34.1333°N, 7.9667°W)
Time: 08:03:39
(UTC+00:00)

S-56A Canister/Altair - Pass Details

Date: 12 December 2021
Orbit: 634 x 2499 km, 38.9° (Epoch: 25 January)

Event Time Altitude Azimuth Distance (km) Brightness Sun altitude
Rises 22:09:42 0° 253° (WSW) 6,109 12.5 -58.3°
Reaches altitude 10° 22:13:55 10° 254° (WSW) 4,989 11.9 -59.2°
Enters shadow 22:20:04 30° 258° (WSW) 3,359 10.8 -60.4°
